Location: Bouchavesnes-Bergen
(49.9859°N, 2.9203°E)
Time: 00:46:05
(UTC+00:00)

IDEFIX/ARIANE 42P - Pass Details

Date: 24 June 2021
Orbit: 784 x 803 km, 98.4° (Epoch: 30 July)

Event Time Altitude Azimuth Distance (km) Brightness Sun altitude
Rises 01:25:08 0° 25° (NNE) 3,314 7.8 -13.7°
Reaches altitude 10° 01:28:01 10° 40° (NE) 2,375 6.3 -13.5°
Maximum altitude 01:32:03 22° 91° (E) 1,677 4.5 -13.2°
Drops below altitude 10° 01:36:02 10° 141° (SE) 2,352 4.8 -13.0°
Enters shadow 01:38:05 - 153° (SSE) 3,008 5.2 -12.8°
